User: anonymous
Location: Unspecified
(0.0000°N, 0.0000°E)
Time: 02:36:08
(UTC+00:00)
Language:

Explorer 7 - Orbit

View from above orbital plane
View from above orbital plane
View from above satellite
View from above satellite

Ground track
Ground track

The orbit data is extracted from the following two-line orbital elements,

1 00022U 59009A   14213.76144012  .00002403  00000-0  22428-3 0  9791
2 00022 050.2851 071.5443 0154222 355.7415 004.2208 14.89482149904444
Epoch (UTC): 01 August 2014 18:16:28
Eccentricity: 0.0154222
inclination: 50.2851°
perigee height: 492 km
apogee height: 707 km
right ascension of ascending node: 71.5443°
argument of perigee: 355.7415°
revolutions per day: 14.89482149
mean anomaly at epoch: 4.2208°
orbit number at epoch: 90444

The dashed part of the orbit path shows where the satellite is in the earth's shadow,  

DLR